Weather History for Randolph AFB, TX

Change the Weather History Date:

Sunday, December 8, 2013

  Actual Average Record
Temperature  
Mean Temperature 38 °F -  
Max Temperature 48 °F 62 °F 80 °F (1999)
Min Temperature 29 °F 42 °F 23 °F (2005)
Degree Days  
Heating Degree Days 26    
Moisture  
Dew Point 31 °F    
Average Humidity 78    
Maximum Humidity 87    
Minimum Humidity 62    
Precipitation  
Precipitation 0.00 in - - ()
Sea Level Pressure  
Sea Level Pressure 30.15 in    
Wind  
Wind Speed 3 mph (NE)    
Max Wind Speed 6 mph    
Max Gust Speed -    
Visibility 10 miles    
Events      
Averages and records for this station are not official NWS values.
T = Trace of Precipitation, MM = Missing Value Source: NWS Daily Summary

Daily Weather History Graph

Daily Weather History Graph

Search for Another Location

Airport:

Trip Planner

Search our weather history database for the weather conditions in past years. The results will help you decide how hot, cold, wet, or windy it might be!

Date:

Astronomy

Dec. 08, 2013 Rise Set
Actual Time 7:15 AM CST 5:34 PM CST
Civil Twilight 6:49 AM CST 6:00 PM CST
Nautical Twilight 6:20 AM CST 6:30 PM CST
Astronomical Twilight 5:51 AM CST 6:59 PM CST
Moon 11:57 AM CST (12/8) No Moon Set
Length of Visible Light 11h 10m
Length of Day
10h 18m
Waxing Crescent, 40% of the Moon is Illuminated
Dec 8
Waxing Crescent
Dec 9
First Quarter
Dec 17
Full
Dec 25
Last Quarter
Jan 1
New

Hourly Weather History & Observations

Time (CST) Temp. Windchill Dew Point Humidity Pressure Visibility Wind Dir Wind Speed Gust Speed Precip Events Conditions
12:03 AM 30.2 °F 24.3 °F 24.8 °F 80% 30.28 in 10.0 mi North 5.8 mph - N/A   Overcast
12:38 AM 30.2 °F 25.4 °F 24.8 °F 80% 30.26 in 10.0 mi North 4.6 mph - N/A   Overcast
12:58 AM 29.5 °F 23.4 °F 25.5 °F 85% 30.25 in 10.0 mi NNE 5.8 mph - N/A   Overcast
1:53 AM 30.2 °F 25.4 °F 24.8 °F 80% 30.22 in 10.0 mi NE 4.6 mph - N/A   Overcast
1:58 AM 29.7 °F 24.7 °F 25.5 °F 85% 30.23 in 10.0 mi NE 4.6 mph - N/A   Overcast
2:08 AM 30.2 °F 25.4 °F 24.8 °F 80% 30.21 in 10.0 mi NNE 4.6 mph - N/A   Overcast
2:13 AM 30.2 °F 25.4 °F 24.8 °F 80% 30.21 in 10.0 mi NE 4.6 mph - N/A   Overcast
2:43 AM 30.2 °F - 24.8 °F 80% 30.20 in 10.0 mi NNE 2.3 mph - N/A   Overcast
2:58 AM 29.8 °F 26.3 °F 25.0 °F 82% 30.22 in 10.0 mi NE 3.5 mph - N/A   Overcast
3:48 AM 32.0 °F 28.7 °F 24.8 °F 75% 30.18 in 10.0 mi NNE 3.5 mph - N/A   Overcast
3:58 AM 30.6 °F - 25.2 °F 80% 30.20 in 10.0 mi NNE 2.3 mph - N/A   Overcast
4:08 AM 32.0 °F - 24.8 °F 75% 30.19 in 10.0 mi North 2.3 mph - N/A   Overcast
4:13 AM 32.0 °F - 24.8 °F 75% 30.19 in 10.0 mi NNE 1.2 mph - N/A   Overcast
4:23 AM 32.0 °F - 24.8 °F 75% 30.19 in 10.0 mi Calm Calm - N/A   Mostly Cloudy
4:33 AM 32.0 °F - 24.8 °F 75% 30.18 in 10.0 mi North 2.3 mph - N/A   Overcast
4:38 AM 32.0 °F - 24.8 °F 75% 30.18 in 10.0 mi North 1.2 mph - N/A   Overcast
4:58 AM 31.1 °F - 24.8 °F 77% 30.19 in 10.0 mi North 1.2 mph - N/A   Overcast
5:43 AM 32.0 °F - 24.8 °F 75% 30.17 in 10.0 mi NNW 1.2 mph - N/A   Overcast
5:58 AM 31.6 °F - 25.0 °F 76% 30.19 in 10.0 mi Calm Calm - N/A   Overcast
6:48 AM 32.0 °F - 24.8 °F 75% 30.18 in 10.0 mi East 1.2 mph - N/A   Overcast
6:58 AM 32.0 °F - 25.5 °F 77% 30.20 in 10.0 mi Calm Calm - N/A   Overcast
7:08 AM 32.0 °F - 24.8 °F 75% 30.18 in 10.0 mi NE 2.3 mph - N/A   Overcast
7:13 AM 32.0 °F - 26.6 °F 80% 30.18 in 10.0 mi NE 1.2 mph - N/A   Overcast
7:33 AM 32.0 °F - 26.6 °F 80% 30.18 in 10.0 mi NE 1.2 mph - N/A   Overcast
7:58 AM 32.4 °F - 26.6 °F 79% 30.19 in 10.0 mi ENE 1.2 mph - N/A   Overcast
8:18 AM 32.0 °F - 26.6 °F 80% 30.17 in 10.0 mi North 2.3 mph - N/A   Overcast
8:58 AM 32.9 °F - 27.3 °F 80% 30.20 in 10.0 mi Variable 2.3 mph - N/A   Overcast
9:58 AM 34.2 °F 31.2 °F 29.3 °F 82% 30.21 in 10.0 mi Variable 3.5 mph - N/A   Overcast
10:13 AM 33.8 °F - 30.2 °F 87% 30.19 in 9.0 mi North 1.2 mph - N/A   Overcast
10:48 AM 35.6 °F - 32.0 °F 87% 30.18 in 10.0 mi Variable 2.3 mph - N/A   Overcast
10:58 AM 35.2 °F - 30.6 °F 83% 30.19 in 10.0 mi Variable 2.3 mph - N/A   Overcast
11:03 AM 35.6 °F 32.8 °F 32.0 °F 87% 30.17 in 8.0 mi NE 3.5 mph - N/A   Overcast
11:13 AM 35.6 °F - 32.0 °F 87% 30.16 in 7.0 mi NE 2.3 mph - N/A   Overcast
11:18 AM 37.4 °F - 32.0 °F 81% 30.16 in 10.0 mi Calm Calm - N/A   Overcast
11:28 AM 37.4 °F - 32.0 °F 81% 30.15 in 10.0 mi Variable 2.3 mph - N/A   Overcast
11:58 AM 38.5 °F - 31.6 °F 76% 30.16 in 10.0 mi Variable 1.2 mph - N/A   Overcast
12:23 PM 39.2 °F - 32.0 °F 75% 30.12 in 10.0 mi Calm Calm - N/A   Overcast
12:48 PM 42.8 °F - 32.0 °F 66% 30.10 in 10.0 mi Calm Calm - N/A   Overcast
12:58 PM 41.9 °F - 33.4 °F 72% 30.11 in 10.0 mi Variable 1.2 mph - N/A   Overcast
1:58 PM 45.3 °F 44.0 °F 34.9 °F 67% 30.07 in 10.0 mi SW 3.5 mph - N/A   Overcast
2:58 PM 47.7 °F - 35.4 °F 63% 30.06 in 10.0 mi Variable 2.3 mph - N/A   Overcast
3:43 PM 48.2 °F - 35.6 °F 62% 30.03 in 10.0 mi ESE 5.8 mph - N/A   Scattered Clouds
3:58 PM 48.7 °F - 36.7 °F 63% 30.04 in 10.0 mi South 3.5 mph - N/A   Partly Cloudy
4:58 PM 47.1 °F - 37.2 °F 68% 30.04 in 10.0 mi SE 5.8 mph - N/A   Clear
5:58 PM 41.5 °F 39.6 °F 35.8 °F 80% 30.07 in 10.0 mi ESE 3.5 mph - N/A   Clear
6:33 PM 41.0 °F 39.0 °F 35.6 °F 81% 30.06 in 10.0 mi ESE 3.5 mph - N/A   Mostly Cloudy
6:58 PM 41.0 °F - 36.5 °F 84% 30.09 in 10.0 mi ESE 2.3 mph - N/A   Overcast
7:43 PM 42.8 °F 41.1 °F 37.4 °F 81% 30.09 in 10.0 mi SE 3.5 mph - N/A   Overcast
7:58 PM 43.7 °F - 38.1 °F 81% 30.11 in 10.0 mi South 2.3 mph - N/A   Overcast
8:58 PM 44.8 °F - 38.1 °F 77% 30.12 in 10.0 mi South 1.2 mph - N/A   Overcast
9:58 PM 44.8 °F - 38.1 °F 77% 30.12 in 10.0 mi Calm Calm - N/A   Overcast
10:13 PM 44.6 °F - 39.2 °F 81% 30.10 in 10.0 mi East 2.3 mph - N/A   Overcast
10:28 PM 44.6 °F 43.1 °F 39.2 °F 81% 30.09 in 10.0 mi ESE 3.5 mph - N/A   Overcast
10:58 PM 44.6 °F - 38.5 °F 79% 30.10 in 10.0 mi NE 2.3 mph - N/A   Overcast
11:18 PM 44.6 °F 43.1 °F 39.2 °F 81% 30.08 in 10.0 mi East 3.5 mph - N/A   Overcast
11:28 PM 44.6 °F 43.1 °F 39.2 °F 81% 30.08 in 10.0 mi East 3.5 mph - N/A   Overcast
11:33 PM 44.6 °F 43.1 °F 39.2 °F 81% 30.08 in 10.0 mi ENE 3.5 mph - N/A   Overcast
11:58 PM 44.4 °F 42.9 °F 39.0 °F 81% 30.09 in 8.0 mi East 3.5 mph - N/A   Overcast